DECAYED

CZ-6A DEB, 55227 (Decayed)

Orbit data source: Space-Track

CZ-6A DEB, 55227 was space debris in SSO originally from a launch on Fri, 11 Nov 2022 UTC launched from the Taiyaun Space Center, China (TSC). Debris objects in space refer to the collection of defunct objects orbiting the Earth. Examples of debris include non-operational satellites, rocket bodies, and fragments generated from explosions, collisions, or faulty payload assembly.

Not visible in the next 10 days
Identifier
55227, 2022-151WU
Orbit
Decayed
Country
Flag of CNCN / PRC
Related business
Manufacturer
SAST
Mission
Decayed spacecraft
Bus & Motor
Unknown
Mass
Unknown
Launch date (UTC)
2022-11-11 (3 years ago)
Launch vehicle
Unknown
Launch site
Taiyaun Space Center, China (TSC)
Object type
Payload
Rocket body
Debris
Shape & HBR
Unknown shape, 0.1 m
Radar Cross Section
Small (<0.1 m²)

Expand to show TLE details & history
Last TLE update: 4 months ago

TLE from 4 months ago
0 CZ-6A DEB
1 55227U 22151WU  25236.70047318  .00770938  00000-0  97059-2 0  9996
2 55227  98.6316 315.6497 0014317 301.9413  58.0446 15.57343885 76737
Epoch: 2025-08-24T16:48Z
TLE epoch observation values (Epoch: 2025-08-24T16:48:40.882Z)
Latitude
-0.00002°
Longitude
90.26224°
Altitude
393.326 km
Speed
7.677 km/s
True Right ascension
21h 02m 35s
True Declination
0° 00' 00"
Sunlit
Object was in full shadow at epoch
Visualization orbit readout
Latitude
Unknown
Longitude
Unknown
Altitude
Unknown
Speed
Unknown
Apparent Right ascension
Unknown
Apparent Declination
Unknown
Sunlit
N/A
Visualization observer readout
Local Sidereal Time
16:47:38
Azimuth
Unknown
Elevation
Unknown
Doppler factor
Unknown
Orbital elements
Apogee altitude
402.015 km
Perigee altitude
382.628 km
Semi-major axis
6,770.459 km
Eccentricity
0.00143
Inclination
98.6316°
RAAN
315.6497°
Arg. of periapsis
301.9413°
True anomaly
58.18393°
Mean anomaly
58.0446°
Eccentric anomaly
58.11425°
Mean motion
3.89597 °/min
Orbital period
92.4 mins
BSTAR
0.0097059
Loading maneuver chart data...
Computing Atmospheric mass density...
Loading historical data...
Loading historical data...
Loading historical data...
Loading historical data...
Loading historical data...
Loading historical data...
Loading historical data...

Documentation

Showing up to 5 results
|